Simultaneous Nadir Overpasses (SNOs) Predictions

Prediction of SNOs between GOES-17 and LANDSAT-8 Satellite Orbit:

Table of predicted SNOs for the next 14.0 days since TLE Epoch: 4/6/2024
Index Date Time (GOES-17) GOES-17 Lat,Lon LANDSAT-8 Lat,Lon Distance(km) Time Diff (sec)
1 04/07/2024 17:09:37 0.00,-104.67 0.02,-104.77 10.56 80
2 04/09/2024 17:00:05 0.00,-104.69 -0.60,-101.81 327.18 80
3 04/10/2024 05:21:29 -0.00,-104.70 -0.51,-107.00 262.65 80
4 04/12/2024 05:06:37 -0.00,-104.71 0.13,-104.05 74.87 80
5 04/14/2024 04:54:25 0.00,-104.72 0.79,-101.10 412.28 80
6 04/14/2024 17:15:40 -0.01,-104.72 0.32,-106.26 174.17 80
7 04/16/2024 17:06:07 -0.01,-104.74 -0.29,-103.29 163.67 80
8 04/17/2024 05:27:31 0.02,-104.75 -0.80,-108.49 425.74 80
9 04/19/2024 05:15:18 0.02,-104.77 -0.17,-105.53 87.27 80
